| time (UTC) | temp C | wind direction | speed KPH | gust KPH | rain 1hr cm | rain 24hr cm | rain mn cm | humidity % | barometer mb |
| 20260504194640 | 26 | 158 | 3.2 | 12.9 | 0.00 | 0.00 | 0.00 | 32 | 1010.8 |
| 20260504194141 | 26 | 203 | 3.2 | 14.5 | 0.00 | 0.00 | 0.00 | 32 | 1010.8 |
| 20260504193641 | 26 | 180 | 1.6 | 14.5 | 0.00 | 0.00 | 0.00 | 32 | 1010.8 |
| 20260504193140 | 26 | 158 | 1.6 | 11.3 | 0.00 | 0.00 | 0.00 | 32 | 1011.1 |
| 20260504192642 | 26 | 203 | 3.2 | 14.5 | 0.00 | 0.00 | 0.00 | 31 | 1010.8 |
| 20260504192141 | 26 | 180 | 1.6 | 12.9 | 0.00 | 0.00 | 0.00 | 34 | 1011.1 |
| 20260504191642 | 26 | 203 | 3.2 | 12.9 | 0.00 | 0.00 | 0.00 | 32 | 1011.1 |
| 20260504191142 | 26 | 203 | 3.2 | 11.3 | 0.00 | 0.00 | 0.00 | 32 | 1010.8 |
| 20260504190641 | 25 | 270 | 1.6 | 12.9 | 0.00 | 0.00 | 0.00 | 34 | 1010.5 |
| 20260504190141 | 25 | 248 | 1.6 | 12.9 | 0.00 | 0.00 | 0.00 | 32 | 1010.8 |
| 20260504185640 | 25 | 270 | 3.2 | 11.3 | 0.00 | 0.00 | 0.00 | 34 | 1010.8 |
| 20260504185140 | 25 | 203 | 1.6 | 11.3 | 0.00 | 0.00 | 0.00 | 32 | 1010.8 |
| 20260504184640 | 25 | 203 | 1.6 | 11.3 | 0.00 | 0.00 | 0.00 | 32 | 1010.5 |
| 20260504184142 | 25 | 180 | 3.2 | 12.9 | 0.00 | 0.00 | 0.00 | 32 | 1010.8 |
| 20260504183641 | 25 | 90 | 1.6 | 12.9 | 0.00 | 0.00 | 0.00 | 34 | 1010.8 |
| 20260504183413 | 25 | 180 | 3.2 | 11.3 | 0.00 | 0.00 | 0.00 | 32 | 1011.1 |
| 20260504182641 | 25 | 225 | 1.6 | 11.3 | 0.00 | 0.00 | 0.00 | 32 | 1011.1 |
| 20260504182141 | 25 | 248 | 3.2 | 11.3 | 0.00 | 0.00 | 0.00 | 32 | 1011.1 |
| 20260504181640 | 25 | 135 | 3.2 | 14.5 | 0.00 | 0.00 | 0.00 | 32 | 1011.5 |
| 20260504181140 | 25 | 225 | 3.2 | 14.5 | 0.00 | 0.00 | 0.00 | 32 | 1011.5 |
| 20260504180640 | 25 | 270 | 3.2 | 11.3 | 0.00 | 0.00 | 0.00 | 32 | 1011.1 |
| 20260504180139 | 25 | 270 | 1.6 | 9.7 | 0.00 | 0.00 | 0.00 | 32 | 1011.1 |
| 20260504175641 | 25 | 270 | 3.2 | 9.7 | 0.00 | 0.00 | 0.00 | 32 | 1010.5 |
| 20260504175412 | 25 | 180 | 1.6 | 9.7 | 0.00 | 0.00 | 0.00 | 30 | 1010.8 |
| 20260504174641 | 25 | 203 | 1.6 | 11.3 | 0.00 | 0.00 | 0.00 | 31 | 1010.8 |
| 20260504174140 | 25 | 203 | 3.2 | 11.3 | 0.00 | 0.00 | 0.00 | 30 | 1010.8 |
| 20260504173641 | 25 | 203 | 3.2 | 11.3 | 0.00 | 0.00 | 0.00 | 31 | 1010.8 |
| 20260504173141 | 25 | 180 | 1.6 | 12.9 | 0.00 | 0.00 | 0.00 | 32 | 1010.8 |
| 20260504172639 | 25 | 180 | 3.2 | 12.9 | 0.00 | 0.00 | 0.00 | 32 | 1010.8 |
| 20260504172410 | 25 | 158 | 3.2 | 14.5 | 0.00 | 0.00 | 0.00 | 32 | 1010.8 |
| 20260504171640 | 25 | 158 | 3.2 | 14.5 | 0.00 | 0.00 | 0.00 | 31 | 1011.1 |
| 20260504171141 | 25 | 158 | 3.2 | 14.5 | 0.00 | 0.00 | 0.00 | 32 | 1011.1 |
| 20260504170641 | 25 | 203 | 3.2 | 14.5 | 0.00 | 0.00 | 0.00 | 32 | 1011.1 |
| 20260504170141 | 25 | 180 | 3.2 | 12.9 | 0.00 | 0.00 | 0.00 | 31 | 1011.5 |
| 20260504160119 | 24 | 203 | 4.8 | 20.9 | 0.00 | 0.00 | 0.00 | 34 | 1010.8 |
| 20260504151119 | 23 | 158 | 3.2 | 12.9 | 0.00 | 0.00 | 0.00 | 39 | 1010.8 |
| 20260504150618 | 23 | 158 | 3.2 | 14.5 | 0.00 | 0.00 | 0.00 | 40 | 1010.5 |
| 20260504150118 | 23 | 293 | 3.2 | 14.5 | 0.00 | 0.00 | 0.00 | 40 | 1010.5 |
| 20260504141119 | 23 | 180 | 3.2 | 9.7 | 0.00 | 0.00 | 0.00 | 41 | 1010.0 |
| 20260504140619 | 23 | 113 | 1.6 | 6.4 | 0.00 | 0.00 | 0.00 | 41 | 1010.0 |
| 20260504140119 | 23 | 203 | 0.0 | 6.4 | 0.00 | 0.00 | 0.00 | 43 | 1010.5 |
| 20260504130618 | 23 | 225 | 1.6 | 9.7 | 0.00 | 0.00 | 0.00 | 43 | 1010.0 |
| 20260504130117 | 23 | 203 | 1.6 | 9.7 | 0.00 | 0.00 | 0.00 | 40 | 1009.3 |
| 20260504120117 | 23 | 270 | 0.0 | 0.0 | 0.00 | 0.00 | 0.00 | 39 | 1009.0 |
| 20260504110617 | 23 | 225 | 0.0 | 4.8 | 0.00 | 0.00 | 0.00 | 37 | 1009.0 |
| 20260504110348 | 23 | 158 | 0.0 | 0.0 | 0.00 | 0.00 | 0.00 | 37 | 1009.0 |
| 20260504100118 | 24 | 180 | 1.6 | 8.0 | 0.00 | 0.00 | 0.00 | 35 | 1009.0 |
| 20260504081615 | 25 | 180 | 1.6 | 12.9 | 0.00 | 0.00 | 0.00 | 35 | 1008.7 |
| 20260504081116 | 25 | 158 | 1.6 | 12.9 | 0.00 | 0.00 | 0.00 | 35 | 1009.0 |
| 20260504080615 | 25 | 225 | 1.6 | 9.7 | 0.00 | 0.00 | 0.00 | 35 | 1009.0 |
| 20260504080117 | 25 | 158 | 1.6 | 9.7 | 0.00 | 0.00 | 0.00 | 35 | 1008.7 |
| 20260504050555 | 27 | 180 | 3.2 | 16.1 | 0.00 | 0.00 | 0.00 | 25 | 1008.7 |
| 20260504045538 | 27 | 203 | 3.2 | 17.7 | 0.00 | 0.00 | 0.00 | 25 | 1008.7 |
| 20260504045311 | 27 | 225 | 3.2 | 17.7 | 0.00 | 0.00 | 0.00 | 24 | 1008.3 |
| 20260504044538 | 27 | 203 | 3.2 | 16.1 | 0.00 | 0.00 | 0.00 | 24 | 1008.3 |
| 20260504044038 | 27 | 203 | 3.2 | 22.5 | 0.00 | 0.00 | 0.00 | 22 | 1008.3 |
| 20260504043808 | 27 | 203 | 4.8 | 22.5 | 0.00 | 0.00 | 0.00 | 22 | 1008.3 |
| 20260504043306 | 28 | 180 | 3.2 | 17.7 | 0.00 | 0.00 | 0.00 | 22 | 1008.3 |
| 20260504042536 | 28 | 203 | 4.8 | 19.3 | 0.00 | 0.00 | 0.00 | 22 | 1008.0 |
| 20260504042306 | 28 | 203 | 4.8 | 19.3 | 0.00 | 0.00 | 0.00 | 22 | 1008.0 |
| 20260504041538 | 28 | 180 | 4.8 | 17.7 | 0.00 | 0.00 | 0.00 | 22 | 1008.0 |
| 20260504041018 | 28 | 158 | 4.8 | 17.7 | 0.00 | 0.00 | 0.00 | 22 | 1007.6 |
| 20260504040519 | 28 | 203 | 4.8 | 19.3 | 0.00 | 0.00 | 0.00 | 20 | 1007.6 |
| 20260504040018 | 28 | 180 | 4.8 | 19.3 | 0.00 | 0.00 | 0.00 | 22 | 1007.6 |
| 20260504035518 | 28 | 158 | 4.8 | 22.5 | 0.00 | 0.00 | 0.00 | 22 | 1007.3 |
| 20260504035017 | 28 | 180 | 4.8 | 22.5 | 0.00 | 0.00 | 0.00 | 22 | 1007.3 |
| 20260504034516 | 28 | 248 | 4.8 | 20.9 | 0.00 | 0.00 | 0.00 | 20 | 1007.3 |
| 20260504034016 | 28 | 180 | 3.2 | 17.7 | 0.00 | 0.00 | 0.00 | 20 | 1006.9 |
| 20260504033517 | 28 | 248 | 4.8 | 20.9 | 0.00 | 0.00 | 0.00 | 20 | 1006.9 |
| 20260504033018 | 29 | 248 | 4.8 | 25.7 | 0.00 | 0.00 | 0.00 | 20 | 1006.5 |
| 20260504032518 | 29 | 248 | 4.8 | 25.7 | 0.00 | 0.00 | 0.00 | 20 | 1006.5 |
| 20260504032017 | 29 | 203 | 4.8 | 25.7 | 0.00 | 0.00 | 0.00 | 20 | 1006.5 |
| 20260504031517 | 29 | 225 | 6.4 | 22.5 | 0.00 | 0.00 | 0.00 | 20 | 1006.2 |
| 20260504031016 | 29 | 203 | 4.8 | 22.5 | 0.00 | 0.00 | 0.00 | 19 | 1006.2 |
| 20260504030515 | 30 | 180 | 4.8 | 22.5 | 0.00 | 0.00 | 0.00 | 19 | 1006.2 |
| 20260504030015 | 30 | 158 | 3.2 | 20.9 | 0.00 | 0.00 | 0.00 | 19 | 1006.2 |
| 20260504025515 | 30 | 203 | 4.8 | 20.9 | 0.00 | 0.00 | 0.00 | 17 | 1006.2 |
| 20260504025016 | 30 | 158 | 4.8 | 20.9 | 0.00 | 0.00 | 0.00 | 17 | 1006.2 |
| 20260504024516 | 30 | 180 | 4.8 | 20.9 | 0.00 | 0.00 | 0.00 | 17 | 1005.9 |
| 20260504024247 | 30 | 180 | 4.8 | 20.9 | 0.00 | 0.00 | 0.00 | 17 | 1005.9 |
| 20260504023747 | 30 | 203 | 3.2 | 24.1 | 0.00 | 0.00 | 0.00 | 17 | 1005.5 |
| 20260504023016 | 30 | 158 | 4.8 | 24.1 | 0.00 | 0.00 | 0.00 | 17 | 1005.5 |
| 20260504022514 | 31 | 203 | 3.2 | 27.4 | 0.00 | 0.00 | 0.00 | 17 | 1005.5 |
| 20260504022015 | 31 | 225 | 6.4 | 27.4 | 0.00 | 0.00 | 0.00 | 17 | 1005.2 |
| 20260504021513 | 31 | 203 | 4.8 | 20.9 | 0.00 | 0.00 | 0.00 | 17 | 1005.2 |
| 20260504021014 | 31 | 158 | 6.4 | 24.1 | 0.00 | 0.00 | 0.00 | 17 | 1005.2 |
| 20260504020514 | 31 | 158 | 4.8 | 27.4 | 0.00 | 0.00 | 0.00 | 17 | 1005.2 |
| 20260504020019 | 32 | 180 | 6.4 | 27.4 | 0.00 | 0.00 | 0.00 | 15 | 1004.8 |
| 20260504020015 | 31 | 180 | 6.4 | 27.4 | 0.00 | 0.00 | 0.00 | 15 | 1004.8 |
| 20260504015014 | 32 | 203 | 4.8 | 22.5 | 0.00 | 0.00 | 0.00 | 15 | 1004.8 |
| 20260504014515 | 32 | 225 | 4.8 | 19.3 | 0.00 | 0.00 | 0.00 | 15 | 1004.8 |
| 20260504014013 | 32 | 158 | 3.2 | 24.1 | 0.00 | 0.00 | 0.00 | 15 | 1004.5 |
| 20260504013512 | 32 | 180 | 4.8 | 24.1 | 0.00 | 0.00 | 0.00 | 15 | 1004.5 |
| 20260504013013 | 32 | 203 | 3.2 | 12.9 | 0.00 | 0.00 | 0.00 | 15 | 1004.5 |
| 20260504012512 | 33 | 248 | 3.2 | 20.9 | 0.00 | 0.00 | 0.00 | 15 | 1004.5 |
| 20260504012013 | 33 | 203 | 4.8 | 20.9 | 0.00 | 0.00 | 0.00 | 13 | 1004.8 |
| 20260504011513 | 33 | 180 | 4.8 | 20.9 | 0.00 | 0.00 | 0.00 | 13 | 1004.5 |
| 20260504011013 | 33 | 225 | 4.8 | 19.3 | 0.00 | 0.00 | 0.00 | 15 | 1004.5 |
| 20260504010743 | 33 | 248 | 4.8 | 19.3 | 0.00 | 0.00 | 0.00 | 15 | 1004.5 |
| 20260504010012 | 33 | 180 | 4.8 | 20.9 | 0.00 | 0.00 | 0.00 | 13 | 1004.5 |
| 20260504005513 | 33 | 180 | 4.8 | 20.9 | 0.00 | 0.00 | 0.00 | 13 | 1004.5 |
| 20260504005011 | 34 | 158 | 3.2 | 19.3 | 0.00 | 0.00 | 0.00 | 15 | 1004.5 |
| 20260504004511 | 34 | 180 | 4.8 | 20.9 | 0.00 | 0.00 | 0.00 | 13 | 1004.5 |
| 20260504004011 | 34 | 203 | 6.4 | 20.9 | 0.00 | 0.00 | 0.00 | 13 | 1004.5 |
| 20260504003512 | 34 | 135 | 4.8 | 24.1 | 0.00 | 0.00 | 0.00 | 13 | 1004.5 |
| 20260504003013 | 34 | 158 | 6.4 | 24.1 | 0.00 | 0.00 | 0.00 | 13 | 1004.5 |
| 20260504002512 | 35 | 203 | 4.8 | 22.5 | 0.00 | 0.00 | 0.00 | 13 | 1004.5 |
| 20260504001954 | 35 | 203 | 3.2 | 20.9 | 0.00 | 0.00 | 0.00 | 12 | 1004.5 |
| 20260504001724 | 35 | 180 | 4.8 | 20.9 | 0.00 | 0.00 | 0.00 | 13 | 1004.5 |
| 20260504000952 | 35 | 203 | 4.8 | 22.5 | 0.00 | 0.00 | 0.00 | 13 | 1004.5 |
| 20260504000452 | 35 | 180 | 4.8 | 22.5 | 0.00 | 0.00 | 0.00 | 15 | 1004.1 |
| 20260503235952 | 35 | 158 | 4.8 | 19.3 | 0.00 | 0.00 | 0.00 | 13 | 1004.5 |
| 20260503235452 | 35 | 248 | 4.8 | 24.1 | 0.00 | 0.00 | 0.00 | 13 | 1004.5 |
| 20260503234953 | 35 | 293 | 4.8 | 24.1 | 0.00 | 0.00 | 0.00 | 13 | 1004.5 |
| 20260503234453 | 35 | 180 | 3.2 | 17.7 | 0.00 | 0.00 | 0.00 | 13 | 1004.1 |
| 20260503233953 | 35 | 203 | 3.2 | 12.9 | 0.00 | 0.00 | 0.00 | 15 | 1004.5 |
| 20260503233440 | 35 | 158 | 3.2 | 12.9 | 0.00 | 0.00 | 0.00 | 13 | 1004.1 |
| 20260503232935 | 35 | 203 | 3.2 | 14.5 | 0.00 | 0.00 | 0.00 | 13 | 1004.5 |
| 20260503232704 | 35 | 180 | 3.2 | 17.7 | 0.00 | 0.00 | 0.00 | 13 | 1004.5 |
| 20260503231932 | 35 | 203 | 3.2 | 17.7 | 0.00 | 0.00 | 0.00 | 13 | 1004.5 |
| 20260503231433 | 35 | 225 | 3.2 | 12.9 | 0.00 | 0.00 | 0.00 | 13 | 1004.8 |
| 20260503230933 | 35 | 225 | 3.2 | 12.9 | 0.00 | 0.00 | 0.00 | 15 | 1004.5 |
| 20260503230433 | 35 | 180 | 1.6 | 12.9 | 0.00 | 0.00 | 0.00 | 15 | 1004.8 |
| 20260503225934 | 35 | 180 | 1.6 | 12.9 | 0.00 | 0.00 | 0.00 | 15 | 1004.8 |
| 20260503225704 | 35 | 23 | 1.6 | 9.7 | 0.00 | 0.00 | 0.00 | 15 | 1004.8 |
| 20260503225204 | 35 | 45 | 1.6 | 14.5 | 0.00 | 0.00 | 0.00 | 15 | 1004.8 |
| 20260503224433 | 35 | 203 | 3.2 | 14.5 | 0.00 | 0.00 | 0.00 | 15 | 1005.2 |
| 20260503223932 | 35 | 248 | 1.6 | 12.9 | 0.00 | 0.00 | 0.00 | 15 | 1005.2 |
| 20260503223432 | 35 | 45 | 3.2 | 16.1 | 0.00 | 0.00 | 0.00 | 15 | 1005.5 |
| 20260503222932 | 35 | 203 | 3.2 | 17.7 | 0.00 | 0.00 | 0.00 | 15 | 1005.2 |
| 20260503222703 | 35 | 180 | 3.2 | 17.7 | 0.00 | 0.00 | 0.00 | 15 | 1005.5 |
| 20260503221933 | 35 | 270 | 1.6 | 25.7 | 0.00 | 0.00 | 0.00 | 15 | 1005.5 |
| 20260503221433 | 35 | 203 | 3.2 | 25.7 | 0.00 | 0.00 | 0.00 | 15 | 1005.9 |
| 20260503220933 | 35 | 180 | 3.2 | 16.1 | 0.00 | 0.00 | 0.00 | 15 | 1005.9 |
| 20260503220432 | 35 | 270 | 3.2 | 16.1 | 0.00 | 0.00 | 0.00 | 15 | 1005.9 |
| 20260503215931 | 35 | 203 | 3.2 | 16.1 | 0.00 | 0.00 | 0.00 | 15 | 1005.9 |
| 20260503215431 | 35 | 180 | 3.2 | 19.3 | 0.00 | 0.00 | 0.00 | 15 | 1005.9 |
| 20260503214931 | 35 | 180 | 4.8 | 19.3 | 0.00 | 0.00 | 0.00 | 15 | 1006.2 |
| 20260503214431 | 35 | 248 | 3.2 | 17.7 | 0.00 | 0.00 | 0.00 | 15 | 1006.2 |
| 20260503213932 | 35 | 180 | 3.2 | 20.9 | 0.00 | 0.00 | 0.00 | 15 | 1006.2 |
| 20260503213432 | 35 | 180 | 3.2 | 20.9 | 0.00 | 0.00 | 0.00 | 15 | 1006.5 |
| 20260503212932 | 35 | 203 | 4.8 | 20.9 | 0.00 | 0.00 | 0.00 | 15 | 1006.5 |
| 20260503212432 | 35 | 203 | 4.8 | 20.9 | 0.00 | 0.00 | 0.00 | 15 | 1006.9 |
| 20260503211913 | 35 | 270 | 3.2 | 16.1 | 0.00 | 0.00 | 0.00 | 17 | 1006.9 |
| 20260503211412 | 35 | 158 | 3.2 | 17.7 | 0.00 | 0.00 | 0.00 | 17 | 1006.9 |
| 20260503210912 | 35 | 158 | 3.2 | 17.7 | 0.00 | 0.00 | 0.00 | 17 | 1006.9 |
| 20260503210417 | 34 | 203 | 3.2 | 19.3 | 0.00 | 0.00 | 0.00 | 17 | 1006.9 |
| 20260503210413 | 35 | 180 | 3.2 | 16.1 | 0.00 | 0.00 | 0.00 | 17 | 1006.9 |
| 20260503205413 | 34 | 158 | 4.8 | 19.3 | 0.00 | 0.00 | 0.00 | 17 | 1007.3 |
| 20260503204913 | 34 | 180 | 3.2 | 14.5 | 0.00 | 0.00 | 0.00 | 17 | 1007.3 |
| 20260503204413 | 34 | 68 | 3.2 | 20.9 | 0.00 | 0.00 | 0.00 | 15 | 1007.6 |
| 20260503203913 | 34 | 180 | 3.2 | 20.9 | 0.00 | 0.00 | 0.00 | 17 | 1007.6 |
| 20260503203412 | 34 | 135 | 3.2 | 12.9 | 0.00 | 0.00 | 0.00 | 17 | 1007.6 |
| 20260503202911 | 34 | 158 | 3.2 | 17.7 | 0.00 | 0.00 | 0.00 | 17 | 1007.6 |
| 20260503202411 | 34 | 225 | 3.2 | 17.7 | 0.00 | 0.00 | 0.00 | 17 | 1008.0 |
| 20260503201912 | 35 | 180 | 3.2 | 12.9 | 0.00 | 0.00 | 0.00 | 17 | 1008.0 |
| 20260503201411 | 35 | 135 | 3.2 | 14.5 | 0.00 | 0.00 | 0.00 | 17 | 1008.0 |
| 20260503200911 | 34 | 180 | 3.2 | 14.5 | 0.00 | 0.00 | 0.00 | 17 | 1008.0 |
| 20260503200412 | 34 | 203 | 3.2 | 14.5 | 0.00 | 0.00 | 0.00 | 17 | 1008.3 |
| 20260503195912 | 34 | 248 | 3.2 | 14.5 | 0.00 | 0.00 | 0.00 | 17 | 1008.0 |
| 20260503195411 | 34 | 135 | 3.2 | 16.1 | 0.00 | 0.00 | 0.00 | 17 | 1008.3 |